This is the latest recevied weather packets stored in our database for station/object N4VTB-13. If no packets are shown the sender has not sent any weather packets the latest 10 day(s).
| Time | Temp. | Humidity | Pressure | Rain* | Wind** | Luminosity | Snow |
|---|---|---|---|---|---|---|---|
| 1777401076 | 10.56° C | 84% | 1024 hPa | 0 mm | - | 255 W/m² | - |
| 1777398676 | 10° C | 85% | 1023.8 hPa | 0 mm | - | 102 W/m² | - |
| 1777396876 | 9.44° C | 88% | 1023.8 hPa | 0 mm | - | 192 W/m² | - |
| 1777393876 | 8.33° C | 92% | 1023.6 hPa | 0 mm | - | 102 W/m² | - |
| 1777389076 | 8.33° C | 94% | 1023.2 hPa | 0 mm | - | 51 W/m² | - |
| 1777387876 | 7.78° C | 94% | 1023 hPa | 0 mm | - | 69 W/m² | - |
| 1777386676 | 7.78° C | 93% | 1022.8 hPa | 0 mm | - | 39 W/m² | - |
| 1777385476 | 7.78° C | 91% | 1022.8 hPa | 0 mm | - | 19 W/m² | - |
| 1777380096 | 7.78° C | 86% | 1021.6 hPa | 0 mm | - | 0 W/m² | - |
| 1777379476 | 7.78° C | 87% | 1021.5 hPa | 0 mm | - | 0 W/m² | - |
| 1777378896 | 7.22° C | 86% | 1021.4 hPa | 0 mm | - | 0 W/m² | - |
| 1777372896 | 7.78° C | 85% | 1020.9 hPa | 0 mm | - | 0 W/m² | - |
| 1777372276 | 7.78° C | 85% | 1020.8 hPa | 0 mm | - | 0 W/m² | - |
| 1777371716 | 7.78° C | 84% | 1020.9 hPa | 0 mm | - | 0 W/m² | - |
| 1777371076 | 7.78° C | 84% | 1020.9 hPa | 0 mm | - | 0 W/m² | - |
| 1777369876 | 8.33° C | 82% | 1021.1 hPa | 0 mm | - | 0 W/m² | - |
| 1777360875 | 10° C | 76% | 1020.7 hPa | 0 mm | - | 0 W/m² | - |
| 1777357876 | 10.56° C | 75% | 1020.3 hPa | 0 mm | - | 0 W/m² | - |
| 1777354876 | 10.56° C | 73% | 1020.2 hPa | 0 mm | - | 0 W/m² | - |
| 1777354276 | 11.11° C | 74% | 1020.2 hPa | 0 mm | - | 0 W/m² | - |
| 1777345275 | 12.22° C | 75% | 1018.7 hPa | 0 mm | - | 0 W/m² | - |
| 1777344075 | 12.22° C | 73% | 1018.7 hPa | 0 mm | - | 12 W/m² | - |
| 1777343475 | 12.78° C | 74% | 1018.6 hPa | 0 mm | - | 19 W/m² | - |
| 1777341075 | 13.33° C | 73% | 1018.3 hPa | 0 mm | - | 51 W/m² | - |
| 1777335075 | 13.33° C | 69% | 1018 hPa | 0 mm | - | 105 W/m² | - |
* Rain latest hour (hover to see other rain measurements)
** Current wind speed in m/s (hover to see current wind gust speed)